[[{"header":{"parameterUnit":"m.s-1","parameterCategory":1,"la1":30.2991,"la2":30.254,"lo1":-89.0895,"lo2":-89.0444,"dy":0.0017,"dx":0.0017,"nx":28,"ny":28,"refTime":"2024-06-17T21:00:00:Z","depth":0,"parameterNumber":2,"parameterNumberName":"U-component_of_WINDS"},"data":[0,0,0,0,0,0,0,0,0,0,0,0,0,0,0,0,0,0,0,0,0,0,0,0,0,0,0,0,0,0,0,0,0,0,0,0,0,0,0,0,0,0,0,0,0,0,0,0,0,0,0,0,0,0,0,0,0,0,-8.5997,-8.5997,0,-8.5986,-8.5986,-8.5986,-8.5727,-8.572,-8.5713,-8.5707,-8.5697,-8.5703,-8.5709,0,0,0,0,0,0,0,0,0,0,0,0,0,-8.5794,-8.5799,-8.5997,-8.5997,-8.5996,-8.5986,-8.5986,-8.5986,-8.5728,-8.572,-8.5711,-8.5704,-8.5695,-8.5702,-8.5709,0,0,0,0,0,0,0,0,0,0,0,0,0,-8.5843,-8.58,-8.5997,-8.5866,-8.5855,-8.5986,-8.5986,-8.5986,-8.5729,-8.5719,-8.5709,-8.57,-8.5693,-8.5702,-8.571,-8.5966,0,0,-8.5738,-8.5742,0,0,0,0,0,0,0,0,-8.584,-8.585,-8.5886,-8.5876,-8.5863,-8.5847,-8.591,-8.5979,-8.5732,-8.5777,-8.5707,-8.5695,-8.5755,-8.5759,-8.5779,-8.5966,-8.5965,-8.5739,-8.5744,-8.5748,-8.575,0,0,0,0,0,0,0,-8.5837,-8.5849,-8.5992,-8.5887,-8.5872,-8.5808,-8.5804,-8.5922,-8.5823,-8.5772,-8.5753,-8.5756,-8.5747,-8.5771,-8.5776,-8.5965,-8.5738,-8.5746,-8.5752,-8.5755,-8.6359,-8.6369,0,0,0,0,0,0,-8.5852,-8.5848,-8.5993,-8.5992,-8.5826,-8.582,-8.5816,-8.5862,-8.5821,-8.5804,-8.5764,-8.5744,-8.576,-8.5766,-8.5775,-8.6068,-8.5748,-8.5756,-8.5761,-8.6348,-8.6361,-8.6373,0,0,0,0,0,0,-8.5848,-8.5867,-8.5993,-8.5915,-8.5926,-8.5834,-8.5889,-8.5867,-8.589,-8.5814,-8.5795,-8.5806,-8.5753,-8.5763,-8.592,-8.6064,-8.576,-8.5768,-8.6336,-8.6352,-8.6367,-8.666,0,0,0,0,0,0,-8.5843,-8.5867,-8.5963,-8.5919,-8.5931,-8.6139,-8.5898,-8.5874,-8.5906,-8.5879,-8.5849,-8.5834,-8.5745,-8.5908,-8.5929,-8.6071,-8.5775,-8.6322,-8.6343,-8.6362,-8.6637,-8.6684,-8.6724,0,0,0,0,0,-8.5837,-8.6047,-8.597,-8.5988,-8.605,-8.6148,-8.6154,-8.6047,-8.5919,-8.6014,-8.5966,-8.5835,-8.6047,-8.5926,-8.5947,-8.6095,-8.6312,-8.6337,-8.636,-8.6617,-8.6674,-8.6723,0,0,0,0,0,0,-8.6111,-8.6039,-8.5952,-8.6154,-8.6159,-8.6104,-8.622,-8.6112,-8.6154,-8.6127,-8.5993,-8.5988,-8.6166,-8.6147,-8.6014,-8.6339,-8.6156,-8.6186,-8.6344,-8.6398,-8.6441,-8.644,-8.5783,0,0,0,0,0,-8.6196,-8.6281,-8.6213,-8.6398,-8.6405,-8.6314,-8.6352,-8.627,-8.6269,-8.627,-8.6232,-8.6237,-8.6304,-8.6351,-8.6408,-8.6634,-8.6622,-8.6746,-8.679,-8.6826,-8.6852,-8.6967,-8.702,-8.6451,-8.6451,-8.6451,0,0,-8.637,-8.6341,-8.6403,-8.6452,-8.6446,-8.6537,-8.6317,-8.6423,-8.6488,-8.6286,-8.643,-8.6405,-8.6401,-8.6593,-8.6676,-8.6582,-8.7007,-8.6857,-8.6886,-8.6892,-8.6997,-8.7051,-8.7099,-8.6468,-8.6465,-8.6462,0,0,-8.6732,-8.6721,-8.6871,-8.687,-8.6863,-8.6801,-8.6838,-8.6799,-8.6773,-8.6917,-8.6766,-8.6843,-8.6962,-8.6965,-8.6982,-8.7347,-8.7227,-8.737,-8.7597,-8.7711,-8.7755,-8.7794,-8.7921,-8.7968,-8.7397,-8.7398,-8.7398,0,-8.6949,-8.7079,-8.6963,-8.7078,-8.7103,-8.6925,-8.7076,-8.708,-8.7094,-8.7115,-8.7011,-8.7155,-8.7141,-8.7329,-8.7418,-8.744,-8.7476,-8.7371,-8.7758,-8.7796,-8.7831,-8.795,-8.7998,-8.7415,-8.7413,-8.7411,-8.7409,0,-8.7345,-8.7438,-8.7561,-8.7576,-8.7616,-8.775,-8.7653,-8.7707,-8.7622,-8.7571,-8.7719,-8.7696,-8.7744,-8.7784,-8.7703,-8.7961,-8.7903,-8.7782,-8.7594,-8.7904,-8.8013,-8.8058,-8.7439,-8.7433,-8.7428,-8.7424,0,0,-8.7876,-8.7826,-8.7873,-8.7877,-8.7857,-8.7926,-8.8052,-8.8099,-8.8146,-8.8163,-8.8263,-8.8368,-8.8255,-8.8275,-8.8192,-8.8293,-8.8579,-8.8158,-8.8155,-8.8233,-8.8859,-8.8948,-8.9003,-8.8502,-8.851,-8.8517,-8.8858,0,-8.8223,-8.8432,-8.8331,-8.8552,-8.8634,-8.8467,-8.8576,-8.8576,-8.8532,-8.8596,-8.8548,-8.8623,-8.847,-8.848,-8.8573,-8.8525,-8.8702,-8.85,-8.8591,-8.8596,-8.8593,-8.906,-8.9154,-8.9477,-8.8901,-8.8908,-8.8913,0,-8.8654,-8.8687,-8.8916,-8.8879,-8.891,-8.901,-8.9043,-8.9108,-8.9104,-8.9065,-8.9089,-8.8983,-8.9102,-8.8921,-8.9082,-8.8947,-8.8979,-8.8962,-8.8972,-8.8972,-8.877,-8.907,-8.9578,-8.9625,-8.898,-8.8975,-8.897,0,-8.9014,-8.9116,-8.9265,-8.9274,-8.9236,-8.9309,-8.9297,-8.9284,-8.9318,-8.9349,-8.9369,-8.9415,-8.9439,-8.9476,-8.9385,-8.9262,-8.9559,-8.937,-8.9528,-8.9531,-8.9594,-8.959,-9.011,-8.9624,-8.9623,-8.9622,-8.9621,0,-8.9409,-8.9554,-8.9425,-8.9517,-8.9675,-8.9558,-8.9718,-8.9688,-8.9677,-8.9759,-8.962,-8.97,-8.9577,-8.9646,-8.9576,-8.9719,-8.9732,-8.9703,-8.9682,-8.9713,-8.9716,-8.9728,-8.9702,-8.9635,-8.9632,-8.963,-8.9627,0,-8.9835,-8.9755,-8.9905,-8.9857,-8.9849,-8.9967,-8.9925,-9.0008,-8.9955,-9.0061,-9.0079,-8.9998,-9.0071,-8.9985,-9.0052,-9.0005,-9.0197,-9.0145,-9.0198,-9.0181,-9.0342,-9.0327,-9.0884,-9.095,-9.0427,-9.0432,-9.0436,0,-9.009,-9.0197,-9.0161,-9.0205,-9.0201,-9.0275,-9.0309,-9.02,-9.024,-9.0245,-9.0327,-9.0388,-9.043,-9.0555,-9.0501,-9.0552,-9.0497,-9.0689,-9.0503,-9.053,-9.0495,-9.0487,-9.0496,-9.0726,-9.0732,-9.0737,-9.0741,0,-9.0549,-9.0504,-9.0557,-9.0598,-9.0642,-9.0669,-9.0686,-9.0731,-9.0616,-9.067,-9.0742,-9.0776,-9.0843,-9.0905,-9.094,-9.0927,-9.0816,-9.0801,-9.0839,-9.0869,-9.0894,-9.0879,-9.0296,-9.0787,-9.0783,-9.0779,-9.0777,-9.0775,-9.0894,-9.098,-9.0968,-9.1032,-9.1033,-9.1051,-9.1125,-9.1082,-9.114,-9.1185,-9.1118,-9.1209,-9.1202,-9.1237,-9.1237,-9.1306,-9.1223,-9.128,-9.1294,-9.1308,-9.133,-9.0887,-9.1313,-9.1311,-9.131,-9.1309,-9.1308,0,-9.1342,-9.1325,-9.1386,-9.1412,-9.1463,-9.1355,-9.1367,-9.1416,-9.1497,-9.15,-9.1545,-9.1628,-9.1687,-9.164,-9.1689,-9.1753,-9.1703,-9.177,-9.1761,-9.176,-9.1403,-9.1363,-9.1809,-9.1809,-9.1809,-9.1809,-9.1809,-9.1809,-9.158,-9.172,-9.1674,-9.1813,-9.1796,-9.1882,-9.1898,-9.1914,-9.1915,-9.2014,-9.2062,-9.2031,-9.2013,-9.206,-9.211,-9.2094,-9.2117,-9.2201,-9.2167,-9.1834,-9.1785,-9.1738,-9.1699,-9.2208,-9.2209,-9.2516,-9.2519,-9.2521]},{"header":{"parameterUnit":"m.s-1","parameterCategory":1,"la1":30.2991,"la2":30.254,"lo1":-89.0895,"lo2":-89.0444,"dy":0.0017,"dx":0.0017,"nx":28,"ny":28,"refTime":"2024-06-17T21:00:00:Z","depth":0,"parameterNumber":3,"parameterNumberName":"V-component_of_WINDS"},"data":[0,0,0,0,0,0,0,0,0,0,0,0,0,0,0,0,0,0,0,0,0,0,0,0,0,0,0,0,0,0,0,0,0,0,0,0,0,0,0,0,0,0,0,0,0,0,0,0,0,0,0,0,0,0,0,0,0,0,1.5153,1.5154,0,1.5214,1.5215,1.5215,1.5188,1.5186,1.5185,1.5183,1.5246,1.5249,1.5252,0,0,0,0,0,0,0,0,0,0,0,0,0,1.5015,1.5017,1.5153,1.5154,1.5155,1.5214,1.5215,1.5216,1.5188,1.5186,1.5184,1.5183,1.5245,1.5248,1.5252,0,0,0,0,0,0,0,0,0,0,0,0,0,1.5075,1.5018,1.5153,1.5148,1.5148,1.5214,1.5215,1.5216,1.5188,1.5186,1.5184,1.5182,1.5243,1.5248,1.5252,1.5326,0,0,1.5266,1.5268,0,0,0,0,0,0,0,0,1.5072,1.508,1.5148,1.5149,1.5149,1.5191,1.5189,1.5253,1.5189,1.5173,1.5183,1.5181,1.5229,1.5235,1.5251,1.5329,1.5332,1.5267,1.527,1.5272,1.5273,0,0,0,0,0,0,0,1.5068,1.5077,1.5177,1.5149,1.515,1.5143,1.5149,1.5201,1.5213,1.5174,1.5172,1.518,1.5229,1.5247,1.5253,1.5333,1.5267,1.5271,1.5274,1.5275,1.5477,1.548,0,0,0,0,0,0,1.5063,1.5074,1.5175,1.5179,1.5104,1.5148,1.5154,1.518,1.5213,1.5215,1.5182,1.5179,1.524,1.5247,1.5255,1.5345,1.5272,1.5276,1.5279,1.5475,1.5478,1.5481,0,0,0,0,0,0,1.5061,1.5073,1.5173,1.5126,1.5138,1.5152,1.5181,1.5182,1.52,1.5218,1.522,1.5198,1.5239,1.5248,1.5309,1.5346,1.5278,1.5282,1.5472,1.5476,1.5479,1.5525,0,0,0,0,0,0,1.5057,1.5072,1.5099,1.5127,1.5141,1.5226,1.5183,1.5185,1.5208,1.5204,1.5234,1.5237,1.5238,1.5303,1.5314,1.5352,1.5286,1.5468,1.5473,1.5478,1.552,1.553,1.5538,0,0,0,0,0,1.5052,1.5109,1.5101,1.5113,1.5176,1.5228,1.5236,1.5236,1.5211,1.524,1.5252,1.5236,1.5341,1.5309,1.5322,1.5361,1.5466,1.5472,1.5478,1.5516,1.5528,1.5538,0,0,0,0,0,0,1.5085,1.5113,1.5104,1.5172,1.5198,1.5223,1.5259,1.5249,1.5282,1.5277,1.5276,1.5283,1.5347,1.536,1.5324,1.5436,1.54,1.5408,1.5425,1.5436,1.5445,1.544,1.529,0,0,0,0,0,1.5101,1.5141,1.5163,1.5221,1.5234,1.5245,1.5267,1.5266,1.5292,1.5303,1.532,1.5347,1.5386,1.5412,1.5449,1.5522,1.5529,1.5556,1.5565,1.5572,1.558,1.5621,1.5634,1.55,1.55,1.55,0,0,1.5133,1.5153,1.5178,1.5228,1.5248,1.529,1.5254,1.5299,1.5331,1.531,1.5369,1.5383,1.5413,1.5481,1.5512,1.5494,1.5619,1.558,1.5585,1.5589,1.5629,1.5641,1.5653,1.5504,1.5503,1.5502,0,0,1.5212,1.5231,1.5282,1.5304,1.5335,1.5342,1.5354,1.5382,1.539,1.545,1.5435,1.5473,1.554,1.5563,1.5583,1.5675,1.5662,1.5687,1.5734,1.5775,1.5785,1.5795,1.5828,1.584,1.5694,1.5695,1.5695,0,1.5248,1.531,1.531,1.5358,1.5381,1.5365,1.5417,1.5438,1.548,1.5496,1.5476,1.5562,1.5581,1.5655,1.5678,1.5694,1.5709,1.5683,1.5784,1.5793,1.5802,1.5834,1.5847,1.5698,1.5697,1.5697,1.5697,0,1.5354,1.5397,1.5435,1.5477,1.5504,1.5554,1.5562,1.559,1.5586,1.5596,1.5658,1.568,1.5723,1.574,1.5736,1.5815,1.5803,1.5784,1.5747,1.5818,1.5848,1.586,1.5702,1.5701,1.57,1.5699,0,0,1.5454,1.5497,1.5511,1.553,1.5565,1.5599,1.5649,1.569,1.5715,1.5745,1.5787,1.5846,1.5829,1.5852,1.5851,1.5887,1.596,1.5864,1.5864,1.5881,1.6049,1.6063,1.6078,1.5952,1.5954,1.5956,1.6047,0,1.5537,1.5624,1.5627,1.5707,1.5748,1.5735,1.5779,1.5805,1.5816,1.5853,1.5865,1.5907,1.5881,1.5895,1.593,1.5944,1.5994,1.5937,1.5992,1.5994,1.5985,1.6093,1.6108,1.6192,1.6058,1.606,1.6062,0,1.5645,1.5679,1.5764,1.5794,1.5812,1.5851,1.5891,1.5926,1.5956,1.5962,1.5989,1.5984,1.6036,1.5999,1.6071,1.6033,1.6056,1.6066,1.6069,1.6074,1.6032,1.6102,1.6219,1.6232,1.608,1.6079,1.6077,0,1.5711,1.5779,1.5838,1.5855,1.5892,1.592,1.5937,1.5965,1.5991,1.6026,1.6043,1.6083,1.6105,1.6137,1.6144,1.6115,1.6217,1.6179,1.6224,1.6224,1.6245,1.6244,1.6368,1.626,1.6259,1.6259,1.6259,0,1.5804,1.5856,1.5869,1.5906,1.5965,1.5968,1.6026,1.6041,1.6066,1.6106,1.6097,1.6135,1.6141,1.6181,1.6186,1.6246,1.6256,1.6263,1.6263,1.6264,1.6263,1.6278,1.6273,1.6263,1.6262,1.6261,1.6261,0,1.5887,1.5898,1.5962,1.5992,1.6001,1.6044,1.607,1.6106,1.6116,1.6167,1.6179,1.6196,1.6243,1.6252,1.6307,1.6311,1.6383,1.6377,1.6372,1.6372,1.6416,1.6412,1.6555,1.6574,1.6453,1.6454,1.6455,0,1.5945,1.5985,1.602,1.6047,1.6065,1.6108,1.6134,1.614,1.6168,1.6207,1.6238,1.6284,1.6321,1.6396,1.6413,1.6456,1.6452,1.6499,1.6458,1.6458,1.6453,1.6451,1.6456,1.6507,1.6508,1.6509,1.651,0,1.6048,1.6051,1.609,1.6132,1.6164,1.6197,1.6228,1.625,1.626,1.6292,1.634,1.6369,1.6426,1.6472,1.6515,1.6532,1.6524,1.6523,1.6536,1.6536,1.6532,1.6536,1.6394,1.652,1.6519,1.6518,1.6518,1.6517,1.612,1.6156,1.6187,1.6231,1.6256,1.6286,1.6321,1.6337,1.6377,1.6424,1.6425,1.6478,1.6509,1.6566,1.6587,1.6629,1.6614,1.6632,1.6636,1.6641,1.6645,1.6526,1.6636,1.6636,1.6636,1.6636,1.6635,0,1.6223,1.6243,1.6284,1.6328,1.6363,1.6353,1.6387,1.6417,1.6464,1.6494,1.6531,1.6587,1.6632,1.6654,1.6699,1.6728,1.6726,1.674,1.6738,1.6742,1.6655,1.664,1.6742,1.6742,1.6742,1.6742,1.6742,1.6741,1.6281,1.6341,1.6349,1.6423,1.6442,1.6494,1.6515,1.6543,1.6567,1.663,1.6668,1.6682,1.671,1.6757,1.6798,1.6804,1.6821,1.6837,1.6841,1.6759,1.6748,1.6738,1.6724,1.6841,1.6841,1.6924,1.6925,1.6926]}]]